E-KAGAKU-1

Last updated on Mon Oct 20 2025 00:02:08 GMT+0000 (Coordinated Universal Time)

1 65943U 98067XQ 25291.71050101 .00076316 00000+0 12629-2 0 9995 2 65943 51.6325 54.8195 0003657 276.0460 84.0112 15.51501334 1295
UTC large
Height (km)
Speed (km/s)
/
Latitude / Longitude
Inclination (degrees)
Orbital Period (minutes)
Azimuth
Elevation
Range (km)
Doppler Factor

Next 0 passes for location: London (51.5072 / 0.1276)

Sorry there are no passes over London.